Showing default

COSMOS 2170, 21784

Orbit data source: Space-Track

COSMOS 2170, 21784 is a payload satellite owned by UNKS RF (CIS) in LEO that was launched on Tue, 12 Nov 1991 UTC via a TSIKLON-3 launch vehicle from the Plesetsk Missile And Space Complex (PKMTR). Payload-class satellites include a variety of spacecraft equipped with specific instruments for various scientific and technological missions. These include communications satellites like Starlink; space stations such as the ISS; scientific satellites like the Hubble; Earth observation satellites from companies like Planet Labs, Umbra, and HawkEye 360; GPS; miniature CubeSats for education and research; and military/defense satellites.

Loading next visibility...
Identifier
21784, 1991-077F
Orbit
LEO
Country
Flag of CISCIS
Related business
Manufacturer
NPO PM
Mission
Defense Communications
Bus & Motor
STRELA-3, Unknown motor
Mass
225 kg wet, 225 kg dry
Launch date (UTC)
1991-11-12 (34 years ago)
Launch vehicle
TSIKLON-3
Launch site
Plesetsk Missile And Space Complex (PKMTR)
Object type
Payload
Rocket body
Debris
Shape & HBR
Cyl, 0.8 m
Radar Cross Section
1.257 m², Medium (>0.1 m² and < 1m²)

Expand to show TLE details & history
Last TLE update: 12 hours ago

TLE from 12 hours ago
0 COSMOS 2170
1 21784U 91077F   25310.73016616  .00000019  00000-0  47304-4 0  9999
2 21784  82.6114  50.5136 0003475  86.6672  66.5929 12.62580586566007
Epoch: 2025-11-06T17:31Z
TLE epoch observation values (Epoch: 2025-11-06T17:31:26.356Z)
Latitude
26.49707°
Longitude
-82.21867°
Altitude
1,414.32 km
Speed
7.156 km/s
True Right ascension
15h 07m 18s
True Declination
26° 22' 18"
Sunlit
Object was in daylight at epoch
Visualization orbit readout
Latitude
Unknown
Longitude
Unknown
Altitude
Unknown
Speed
Unknown
Apparent Right ascension
Unknown
Apparent Declination
Unknown
Sunlit
N/A
Visualization observer readout
Local Sidereal Time
01:57:47
Azimuth
Unknown
Elevation
Unknown
Doppler factor
Unknown
Orbital elements
Apogee altitude
1,412.336 km
Perigee altitude
1,406.924 km
Semi-major axis
7,787.767 km
Eccentricity
0.00035
Inclination
82.6114°
RAAN
50.5136°
Arg. of periapsis
86.6672°
True anomaly
66.62945°
Mean anomaly
66.5929°
Eccentric anomaly
66.61117°
Mean motion
3.15808 °/min
Orbital period
113.99 mins
BSTAR
0.000047304
Loading maneuver chart data...
Computing Atmospheric mass density...
Loading historical data...
Loading historical data...
Loading historical data...
Loading historical data...
Loading historical data...
Loading historical data...
Loading historical data...

Documentation

Showing up to 5 results
|